Content
SEND FEEDBACK

Daily
Averages
Monthly
Summary
United States of America

ROCK HILL, NEW YORK


Home > North America > United States > New York
Elevation: 1260 feet     Latitude: 41 35N     Longitude: 074 37W

WEATHER
 
SELECT A DAY
Number of Records: 443,300;   Date Range: 1/1/95 - 7/23/14
 
SHARE

PRINT THIS DATA

[ ← Previous Day ]
WEATHER ALMANAC - MAY 4, 2014
[ Next Day → ]
[ °C ]   °F
Weather ElementAverageHighLow
Temperature49.2 °F55.4 °F (11:55 am)41 °F (5:35 am)
Dewpoint33.3 °F44.6 °F (12:35 am)21.2 °F (4:15 pm)
Humidity59.1 %100 % (12:55 am)26 % (4:15 pm)
Barometer29.73 in29.81 in (10:35 pm)29.66 in (1:15 pm)
Wind Speed14.9 mph27.6 mph (4:55 pm)
Wind Gust42.6 mph (10:55 pm)
Weather ElementAverage
Visibility9.8 mi
Wind DirectionWNW (281 °)

Weather ElementTotal
Precipitation0.02 in
Heating Degree Days16.8 (Base 65)
Averaged from 71 records on May 4, 2014
WEATHER CONDITIONS BREAKOUT
WIND DIRECTION BREAKOUT
WEATHER BY HOUR - MAY 4, 2014
[ °C ]   °F
Local TimeTemperatureDewpointHumidityBarometerVisibilityWind DirectionWind SpeedGust SpeedPrecipitationEventsConditions
12:35 AM46.4 °F44.6 °F93 %29.76 in10.0 miWest (270°)4.6 mphClear
12:55 AM44.6 °F44.6 °F100 %29.76 in6.0 miWest (260°)4.6 mphClear
1:15 AM46.4 °F44.6 °F93 %29.76 in10.0 miWSW (250°)4.6 mphPartly Cloudy
1:35 AM44.6 °F44.6 °F100 %29.76 in7.0 miWest (260°)4.6 mphClear
1:55 AM44.6 °F44.6 °F100 %29.76 in10.0 miWest (280°)4.6 mphClear
2:15 AM44.6 °F44.6 °F100 %29.75 in7.0 miWest (270°)4.6 mphClear
2:35 AM44.6 °F42.8 °F93 %29.75 in8.0 miWSW (240°)4.6 mphScattered Clouds
2:55 AM44.6 °F42.8 °F93 %29.75 in10.0 miWest (260°)3.5 mphScattered Clouds
3:15 AM44.6 °F42.8 °F93 %29.75 in10.0 miWest (260°)6.9 mphMostly Cloudy
3:35 AM44.6 °F44.6 °F100 %29.74 in10.0 miSW (220°)6.9 mph0.01 inMostly Cloudy
3:55 AM44.6 °F42.8 °F93 %29.74 in10.0 miWSW (240°)5.8 mph0.01 inMostly Cloudy
4:15 AM42.8 °F41.0 °F93 %29.74 in10.0 miWest (260°)5.8 mphPartly Cloudy
4:35 AM42.8 °F41.0 °F93 %29.74 in10.0 miWSW (250°)6.9 mphClear
4:55 AM42.8 °F39.2 °F87 %29.75 in10.0 miWest (260°)8.1 mphClear
5:15 AM42.8 °F39.2 °F87 %29.75 in10.0 miWest (270°)6.9 mphClear
5:35 AM41.0 °F39.2 °F93 %29.74 in10.0 miWest (270°)9.2 mphClear
5:55 AM42.8 °F39.2 °F87 %29.74 in10.0 miWest (270°)10.4 mphClear
6:15 AM42.8 °F39.2 °F87 %29.75 in10.0 miWest (260°)8.1 mphClear
6:35 AM42.8 °F39.2 °F87 %29.75 in10.0 miWest (260°)10.4 mphClear
6:55 AM42.8 °F39.2 °F87 %29.75 in10.0 miWest (260°)9.2 mphClear
7:15 AM44.6 °F39.2 °F81 %29.75 in10.0 miWest (260°)9.2 mphClear
7:35 AM44.6 °F39.2 °F81 %29.75 in10.0 miWest (260°)8.1 mphClear
7:55 AM46.4 °F39.2 °F76 %29.74 in10.0 miWest (260°)10.4 mph16.1 mphClear
8:15 AM46.4 °F39.2 °F76 %29.74 in10.0 miWest (260°)9.2 mph23.0 mphPartly Cloudy
8:35 AM48.2 °F39.2 °F71 %29.74 in10.0 miWest (260°)9.2 mph26.5 mphMostly Cloudy
8:55 AM48.2 °F37.4 °F66 %29.73 in10.0 miWest (270°)12.7 mph27.6 mphMostly Cloudy
9:15 AM48.2 °F37.4 °F66 %29.72 in10.0 miWest (270°)18.4 mph26.5 mphOvercast
9:35 AM50.0 °F33.8 °F54 %29.71 in10.0 miWest (270°)15.0 mph26.5 mphMostly Cloudy
9:55 AM51.8 °F33.8 °F50 %29.71 in10.0 miWest (280°)18.4 mph25.3 mphOvercast
10:15 AM51.8 °F33.8 °F50 %29.70 in10.0 miWest (280°)16.1 mph26.5 mphOvercast
10:35 AM51.8 °F33.8 °F50 %29.70 in10.0 miWest (270°)19.6 mph28.8 mphMostly Cloudy
10:55 AM53.6 °F32.0 °F44 %29.70 in10.0 miWNW (290°)15.0 mph27.6 mphScattered Clouds
11:15 AM53.6 °F32.0 °F44 %29.70 in10.0 miWest (270°)17.3 mph29.9 mphMostly Cloudy
11:35 AM53.6 °F32.0 °F44 %29.69 in10.0 miWest (280°)19.6 mph26.5 mphMostly Cloudy
11:55 AM55.4 °F30.2 °F38 %29.68 in10.0 miWest (270°)19.6 mph32.2 mphScattered Clouds
12:15 PM55.4 °F30.2 °F38 %29.68 in10.0 miWest (280°)17.3 mph25.3 mphMostly Cloudy
12:35 PM55.4 °F30.2 °F38 %29.67 in10.0 miWest (270°)16.1 mph31.1 mphScattered Clouds
12:55 PM55.4 °F28.4 °F36 %29.67 in10.0 miWNW (290°)17.3 mph28.8 mphScattered Clouds
1:15 PM55.4 °F28.4 °F36 %29.66 in10.0 miWest (280°)15.0 mph28.8 mphMostly Cloudy
1:35 PM55.4 °F28.4 °F36 %29.66 in10.0 miWest (270°)17.3 mph28.8 mphMostly Cloudy
1:55 PM55.4 °F28.4 °F36 %29.66 in10.0 miWNW (290°)16.1 mph24.2 mphMostly Cloudy
2:15 PM55.4 °F30.2 °F38 %29.66 in10.0 miWNW (300°)19.6 mph25.3 mphMostly Cloudy
2:35 PM55.4 °F28.4 °F36 %29.67 in10.0 miWNW (300°)21.9 mph34.5 mphMostly Cloudy
2:55 PM55.4 °F28.4 °F36 %29.67 in10.0 miWNW (300°)21.9 mph33.4 mphScattered Clouds
3:15 PM55.4 °F28.4 °F36 %29.67 in10.0 miWest (280°)19.6 mph31.1 mphPartly Cloudy
3:35 PM55.4 °F24.8 °F31 %29.66 in10.0 miWNW (290°)25.3 mph36.8 mphPartly Cloudy
3:55 PM55.4 °F26.6 °F33 %29.67 in10.0 miNW (310°)20.7 mph29.9 mphPartly Cloudy
4:15 PM55.4 °F21.2 °F26 %29.68 in10.0 miWNW (290°)21.9 mph34.5 mphScattered Clouds
4:35 PM55.4 °F24.8 °F31 %29.68 in10.0 miNW (310°)17.3 mph29.9 mphScattered Clouds
4:55 PM55.4 °F24.8 °F31 %29.68 in10.0 miWNW (290°)27.6 mph32.2 mphPartly Cloudy
5:15 PM55.4 °F24.8 °F31 %29.69 in10.0 miWNW (300°)24.2 mph35.7 mphPartly Cloudy
5:35 PM55.4 °F26.6 °F33 %29.70 in10.0 miWNW (300°)16.1 mph32.2 mphMostly Cloudy
5:55 PM53.6 °F28.4 °F38 %29.71 in10.0 miNW (310°)17.3 mph29.9 mphMostly Cloudy
6:15 PM53.6 °F24.8 °F33 %29.70 in10.0 miWNW (290°)23.0 mph36.8 mphMostly Cloudy
6:35 PM53.6 °F24.8 °F33 %29.70 in10.0 miWNW (290°)25.3 mph35.7 mphMostly Cloudy
6:55 PM51.8 °F24.8 °F35 %29.71 in10.0 miWNW (300°)12.7 mph32.2 mphMostly Cloudy
7:15 PM51.8 °F24.8 °F35 %29.72 in10.0 miWNW (300°)17.3 mph31.1 mphPartly Cloudy
7:35 PM50.0 °F24.8 °F37 %29.73 in10.0 miNW (310°)20.7 mph29.9 mphClear
7:55 PM50.0 °F26.6 °F40 %29.74 in10.0 miNW (310°)18.4 mph24.2 mphScattered Clouds
8:15 PM48.2 °F26.6 °F43 %29.75 in10.0 miNW (310°)19.6 mph28.8 mphMostly Cloudy
8:35 PM48.2 °F26.6 °F43 %29.76 in10.0 miWNW (300°)16.1 mph23.0 mphMostly Cloudy
8:55 PM48.2 °F28.4 °F46 %29.77 in10.0 miWNW (300°)15.0 mph23.0 mphPartly Cloudy
9:15 PM48.2 °F28.4 °F46 %29.78 in10.0 miWNW (300°)17.3 mph29.9 mphPartly Cloudy
9:35 PM48.2 °F30.2 °F50 %29.79 in10.0 miNW (320°)19.6 mph32.2 mphClear
9:55 PM46.4 °F30.2 °F53 %29.80 in10.0 miNW (310°)16.1 mph31.1 mphClear
10:15 PM46.4 °F30.2 °F53 %29.80 in10.0 miWNW (300°)19.6 mph35.7 mphClear
10:35 PM46.4 °F30.2 °F53 %29.81 in10.0 miNW (310°)16.1 mph26.5 mphClear
10:55 PM46.4 °F30.2 °F53 %29.80 in10.0 miWNW (300°)21.9 mph42.6 mphClear
11:15 PM46.4 °F30.2 °F53 %29.81 in10.0 miNW (310°)26.5 mph38.0 mphPartly Cloudy
11:35 PM44.6 °F30.2 °F57 %29.80 in10.0 miWNW (300°)27.6 mph38.0 mphClear
11:55 PM44.6 °F32.0 °F61 %29.81 in10.0 miNW (310°)25.3 mph39.1 mphPartly Cloudy
Hourly data recorded from KMSV, located miles away from Rock Hill, New York







STORIES FROM OUR PARTNERS